Precipitable_Water
0.91 0.64 0.55 0.52 0.52 0.55 0.56 0.57 0.56 0.56 0.53 0.53 0.51 0.49 0.48 0.46 0.49 0.56 0.59 0.67 0.72 0.63 0.57 0.57 0.58 0.57 0.52 0.55 0.61 0.64 0.64 0.63 0.62 0.61 0.61 0.62 0.65 0.69 0.74 0.77 0.80 0.82 0.84 0.91 0.92 0.93 0.93 0.93 0.95 0.98 1.01 1.02 1.04 1.06 1.08 1.09 1.11 1.14 1.13 1.13 1.10 1.04 0.91 0.85 0.81 0.78 0.74 0.68 0.73 0.93 1.03 1.03 1.07 1.08 1.12 1.14 1.17 1.18 1.15 1.13 1.11 1.06 1.03 1.03 1.02 1.00
0.89 0.65 0.59 0.60 0.62 0.62 0.62 0.62 0.61 0.55 0.54 0.47 0.46 0.45 0.44 0.46 0.42 0.50 0.51 0.58 0.65 0.58 0.54 0.59 0.56 0.55 0.54 0.54 0.59 0.64 0.63 0.59 0.59 0.58 0.58 0.58 0.62 0.65 0.69 0.72 0.76 0.80 0.86 0.88 0.88 0.90 0.91 0.91 0.91 0.93 0.96 0.99 0.96 1.00 1.03 1.04 1.08 1.11 1.13 1.12 1.11 1.13 1.08 0.94 0.84 0.80 0.77 0.72 0.67 0.68 0.84 1.04 1.08 1.07 1.06 1.06 1.12 1.15 1.16 1.12 1.08 1.05 1.02 1.01 1.00 1.01
0.68 0.63 0.65 0.69 0.69 0.67 0.65 0.61 0.59 0.55 0.51 0.50 0.45 0.44 0.41 0.42 0.48 0.52 0.51 0.53 0.54 0.53 0.48 0.54 0.51 0.52 0.55 0.54 0.55 0.57 0.59 0.61 0.61 0.59 0.57 0.59 0.60 0.62 0.64 0.68 0.72 0.76 0.78 0.83 0.84 0.87 0.88 0.89 0.89 0.89 0.91 0.94 0.96 0.97 1.00 1.03 1.06 1.09 1.11 1.12 1.11 1.11 1.12 1.08 0.97 0.87 0.77 0.76 0.75 0.70 0.70 0.85 1.01 1.13 1.13 1.11 1.12 1.15 1.14 1.14 1.10 1.06 1.02 0.99 0.96 1.00
0.56 0.63 0.74 0.78 0.74 0.68 0.62 0.61 0.60 0.56 0.54 0.50 0.45 0.42 0.36 0.42 0.39 0.32 0.45 0.49 0.50 0.49 0.46 0.50 0.46 0.47 0.53 0.54 0.51 0.54 0.55 0.58 0.61 0.61 0.59 0.60 0.59 0.59 0.61 0.65 0.67 0.71 0.74 0.76 0.79 0.81 0.83 0.86 0.87 0.86 0.86 0.89 0.92 0.93 0.97 0.99 1.00 1.05 1.08 1.10 1.09 1.06 1.09 1.11 1.10 0.98 0.88 0.85 0.83 0.82 0.76 0.76 0.82 0.93 1.08 1.12 1.13 1.13 1.12 1.10 1.14 1.10 1.05 1.02 0.98 0.99
0.59 0.69 0.80 0.80 0.78 0.73 0.63 0.63 0.58 0.53 0.47 0.52 0.48 0.43 0.39 0.40 0.40 0.38 0.42 0.48 0.50 0.50 0.50 0.46 0.40 0.37 0.40 0.38 0.40 0.46 0.55 0.53 0.54 0.58 0.58 0.59 0.60 0.61 0.62 0.62 0.65 0.66 0.70 0.72 0.75 0.78 0.79 0.80 0.81 0.82 0.84 0.86 0.85 0.88 0.90 0.95 0.97 0.99 1.02 1.07 1.08 1.02 1.01 1.05 1.08 1.06 0.98 0.90 0.87 0.85 0.84 0.82 0.76 0.80 0.88 0.97 0.99 1.04 1.07 1.10 1.11 1.10 1.11 1.06 1.01 1.01
0.63 0.76 0.79 0.74 0.74 0.75 0.71 0.64 0.62 0.56 0.47 0.49 0.53 0.48 0.45 0.46 0.42 0.42 0.46 0.44 0.38 0.35 0.42 0.40 0.26 0.22 0.29 0.32 0.30 0.34 0.40 0.43 0.49 0.48 0.49 0.52 0.55 0.58 0.58 0.57 0.60 0.62 0.66 0.68 0.70 0.72 0.74 0.75 0.77 0.80 0.81 0.81 0.81 0.82 0.87 0.93 0.96 0.99 1.01 1.04 1.08 1.06 1.02 1.01 1.03 1.06 1.04 0.95 0.83 0.79 0.73 0.66 0.63 0.59 0.60 0.61 0.69 0.86 0.95 1.00 1.11 1.15 1.15 1.11 1.05 1.03
0.61 0.76 0.76 0.70 0.69 0.69 0.70 0.67 0.70 0.67 0.53 0.48 0.48 0.58 0.54 0.52 0.49 0.47 0.45 0.41 0.31 0.25 0.36 0.42 0.25 0.18 0.32 0.28 0.29 0.31 0.33 0.36 0.42 0.43 0.45 0.48 0.50 0.54 0.56 0.57 0.57 0.57 0.58 0.62 0.65 0.68 0.69 0.71 0.72 0.75 0.78 0.78 0.76 0.78 0.84 0.89 0.93 0.97 0.99 1.03 1.05 1.06 1.05 1.03 1.01 1.03 1.03 1.00 0.95 0.82 0.73 0.67 0.62 0.55 0.55 0.57 0.62 0.68 0.79 0.91 0.97 1.03 1.09 1.10 1.06 1.04
0.65 0.66 0.67 0.69 0.66 0.63 0.64 0.62 0.71 0.72 0.60 0.52 0.65 0.65 0.62 0.57 0.53 0.52 0.50 0.46 0.39 0.47 0.48 0.44 0.38 0.24 0.21 0.26 0.33 0.33 0.31 0.32 0.34 0.36 0.39 0.42 0.45 0.49 0.53 0.55 0.56 0.57 0.58 0.58 0.60 0.63 0.67 0.69 0.69 0.68 0.72 0.73 0.73 0.76 0.80 0.82 0.86 0.89 0.92 0.96 0.99 1.03 1.05 1.06 1.05 1.03 1.02 0.97 0.97 0.91 0.81 0.73 0.68 0.63 0.55 0.58 0.59 0.63 0.67 0.71 0.79 0.89 0.97 1.03 1.05 1.03
0.60 0.59 0.62 0.61 0.62 0.59 0.56 0.65 0.73 0.76 0.65 0.63 0.72 0.72 0.64 0.63 0.61 0.59 0.54 0.49 0.47 0.42 0.33 0.37 0.41 0.28 0.22 0.28 0.34 0.31 0.24 0.26 0.28 0.31 0.34 0.38 0.41 0.44 0.48 0.51 0.54 0.57 0.59 0.59 0.58 0.58 0.61 0.65 0.68 0.67 0.66 0.68 0.70 0.72 0.73 0.76 0.79 0.83 0.87 0.90 0.94 0.96 0.99 1.03 1.06 1.03 1.03 1.01 0.99 0.96 0.91 0.80 0.74 0.71 0.67 0.68 0.67 0.64 0.65 0.63 0.67 0.74 0.83 0.91 0.98 1.02
0.64 0.64 0.65 0.65 0.60 0.55 0.61 0.65 0.72 0.74 0.62 0.71 0.77 0.78 0.74 0.72 0.68 0.64 0.57 0.52 0.51 0.44 0.31 0.32 0.38 0.26 0.20 0.30 0.30 0.32 0.26 0.23 0.29 0.32 0.33 0.35 0.35 0.36 0.40 0.45 0.51 0.54 0.57 0.59 0.60 0.60 0.61 0.65 0.68 0.70 0.68 0.65 0.64 0.67 0.70 0.70 0.74 0.78 0.81 0.83 0.86 0.89 0.94 0.97 0.99 1.01 1.01 1.01 1.01 1.00 0.99 0.91 0.78 0.74 0.73 0.72 0.68 0.66 0.67 0.62 0.64 0.66 0.69 0.76 0.84 0.92
0.65 0.74 0.74 0.66 0.60 0.60 0.63 0.66 0.68 0.73 0.73 0.78 0.75 0.68 0.66 0.67 0.65 0.65 0.62 0.57 0.51 0.38 0.33 0.36 0.42 0.36 0.22 0.28 0.31 0.28 0.25 0.27 0.31 0.33 0.34 0.34 0.34 0.34 0.36 0.41 0.45 0.49 0.53 0.55 0.56 0.58 0.60 0.63 0.65 0.68 0.67 0.67 0.65 0.63 0.63 0.65 0.65 0.67 0.71 0.74 0.77 0.81 0.91 0.94 0.93 0.94 0.94 0.98 1.01 1.01 1.01 0.98 0.88 0.80 0.74 0.70 0.68 0.69 0.67 0.63 0.63 0.65 0.66 0.69 0.71 0.77
0.63 0.65 0.62 0.64 0.68 0.68 0.68 0.61 0.70 0.71 0.73 0.70 0.63 0.60 0.59 0.56 0.61 0.56 0.53 0.56 0.40 0.33 0.36 0.42 0.45 0.44 0.28 0.28 0.36 0.39 0.39 0.35 0.33 0.31 0.32 0.33 0.34 0.35 0.35 0.37 0.40 0.41 0.42 0.45 0.49 0.52 0.56 0.58 0.60 0.62 0.64 0.64 0.62 0.60 0.58 0.58 0.58 0.58 0.60 0.64 0.68 0.75 0.82 0.88 0.89 0.87 0.87 0.90 0.92 0.95 1.01 1.04 1.01 0.93 0.83 0.73 0.67 0.69 0.67 0.66 0.64 0.67 0.69 0.69 0.70 0.71
0.51 0.53 0.59 0.60 0.67 0.62 0.58 0.56 0.60 0.65 0.68 0.64 0.60 0.57 0.45 0.39 0.43 0.35 0.42 0.34 0.35 0.31 0.37 0.45 0.48 0.43 0.36 0.32 0.40 0.42 0.40 0.40 0.39 0.38 0.37 0.37 0.36 0.37 0.35 0.36 0.36 0.36 0.39 0.41 0.44 0.48 0.53 0.56 0.58 0.58 0.58 0.58 0.58 0.56 0.55 0.56 0.58 0.59 0.59 0.59 0.58 0.63 0.75 0.83 0.86 0.83 0.83 0.84 0.82 0.82 0.88 0.97 1.06 1.06 0.99 0.87 0.79 0.78 0.76 0.74 0.71 0.70 0.67 0.68 0.68 0.69
0.43 0.56 0.59 0.59 0.62 0.65 0.61 0.47 0.49 0.50 0.58 0.58 0.53 0.49 0.41 0.34 0.32 0.29 0.33 0.37 0.37 0.40 0.45 0.44 0.51 0.40 0.39 0.37 0.43 0.41 0.44 0.44 0.43 0.44 0.44 0.42 0.41 0.40 0.38 0.37 0.38 0.40 0.42 0.44 0.45 0.48 0.50 0.51 0.52 0.54 0.54 0.54 0.54 0.54 0.56 0.57 0.59 0.59 0.57 0.56 0.55 0.54 0.62 0.73 0.79 0.79 0.77 0.77 0.78 0.79 0.80 0.85 0.95 1.02 1.06 1.03 0.91 0.84 0.85 0.85 0.82 0.78 0.75 0.72 0.68 0.68
0.29 0.34 0.48 0.54 0.47 0.63 0.58 0.52 0.50 0.47 0.51 0.55 0.61 0.54 0.45 0.42 0.35 0.28 0.32 0.29 0.31 0.33 0.39 0.48 0.42 0.36 0.30 0.28 0.41 0.44 0.46 0.47 0.48 0.47 0.47 0.47 0.47 0.46 0.45 0.43 0.43 0.43 0.45 0.46 0.46 0.46 0.46 0.47 0.49 0.51 0.50 0.48 0.48 0.48 0.47 0.48 0.50 0.54 0.54 0.54 0.54 0.53 0.55 0.60 0.68 0.75 0.75 0.76 0.78 0.79 0.80 0.79 0.84 0.91 0.99 1.05 1.07 1.01 0.95 0.95 0.94 0.93 0.88 0.81 0.77 0.75
0.35 0.36 0.46 0.55 0.55 0.60 0.52 0.56 0.60 0.55 0.52 0.56 0.59 0.60 0.49 0.43 0.51 0.37 0.41 0.40 0.38 0.36 0.34 0.39 0.39 0.43 0.32 0.39 0.45 0.46 0.47 0.46 0.47 0.47 0.47 0.45 0.47 0.49 0.47 0.46 0.44 0.45 0.46 0.47 0.47 0.48 0.48 0.48 0.49 0.49 0.48 0.46 0.46 0.46 0.47 0.45 0.44 0.44 0.47 0.48 0.48 0.47 0.49 0.55 0.61 0.66 0.71 0.75 0.77 0.78 0.78 0.77 0.78 0.83 0.91 0.96 1.02 1.07 1.10 1.09 1.08 1.06 1.02 0.96 0.91 0.87
0.38 0.34 0.51 0.56 0.61 0.55 0.51 0.56 0.56 0.57 0.34 0.49 0.53 0.45 0.46 0.55 0.53 0.44 0.45 0.48 0.47 0.41 0.34 0.44 0.41 0.41 0.42 0.39 0.42 0.43 0.43 0.43 0.45 0.45 0.44 0.45 0.48 0.49 0.47 0.48 0.48 0.47 0.48 0.48 0.47 0.48 0.48 0.48 0.49 0.50 0.48 0.47 0.46 0.45 0.44 0.45 0.45 0.43 0.42 0.42 0.43 0.45 0.48 0.51 0.57 0.63 0.69 0.72 0.74 0.75 0.77 0.76 0.75 0.77 0.80 0.87 0.93 0.98 1.06 1.13 1.15 1.15 1.14 1.09 1.02 0.97
0.29 0.32 0.52 0.50 0.48 0.57 0.59 0.56 0.54 0.57 0.60 0.53 0.42 0.46 0.61 0.66 0.58 0.45 0.33 0.38 0.36 0.30 0.32 0.40 0.34 0.33 0.33 0.23 0.37 0.38 0.36 0.39 0.41 0.42 0.44 0.46 0.47 0.46 0.47 0.49 0.49 0.50 0.50 0.49 0.49 0.50 0.50 0.48 0.48 0.49 0.50 0.48 0.46 0.45 0.45 0.46 0.48 0.47 0.45 0.44 0.44 0.45 0.44 0.48 0.54 0.59 0.63 0.66 0.68 0.71 0.72 0.72 0.72 0.73 0.77 0.84 0.89 0.96 0.99 1.02 1.06 1.09 1.09 1.09 1.07 1.02
0.39 0.28 0.41 0.49 0.48 0.54 0.60 0.57 0.52 0.59 0.59 0.49 0.44 0.61 0.45 0.38 0.37 0.45 0.39 0.27 0.27 0.27 0.28 0.31 0.33 0.32 0.33 0.26 0.31 0.32 0.33 0.35 0.38 0.41 0.42 0.42 0.43 0.43 0.44 0.46 0.48 0.52 0.51 0.50 0.49 0.48 0.49 0.48 0.48 0.49 0.50 0.50 0.49 0.48 0.47 0.48 0.48 0.48 0.47 0.47 0.47 0.45 0.47 0.48 0.52 0.56 0.60 0.63 0.64 0.65 0.67 0.69 0.72 0.76 0.80 0.87 0.92 0.95 0.96 0.96 0.97 0.99 1.02 1.05 1.07 1.06
0.37 0.23 0.29 0.43 0.43 0.51 0.54 0.51 0.35 0.43 0.58 0.60 0.60 0.52 0.57 0.47 0.41 0.38 0.38 0.36 0.34 0.27 0.28 0.27 0.31 0.27 0.32 0.28 0.28 0.31 0.32 0.36 0.37 0.39 0.39 0.40 0.41 0.41 0.42 0.43 0.44 0.47 0.49 0.49 0.49 0.50 0.49 0.48 0.48 0.48 0.49 0.51 0.52 0.52 0.51 0.50 0.50 0.48 0.48 0.48 0.48 0.48 0.50 0.52 0.53 0.55 0.55 0.59 0.62 0.63 0.66 0.69 0.72 0.75 0.79 0.84 0.88 0.90 0.91 0.94 0.95 0.97 0.98 1.00 1.04 1.08
0.31 0.31 0.18 0.35 0.44 0.44 0.35 0.46 0.35 0.38 0.37 0.43 0.44 0.43 0.48 0.44 0.54 0.50 0.47 0.39 0.34 0.29 0.28 0.27 0.25 0.29 0.30 0.33 0.32 0.34 0.34 0.38 0.37 0.37 0.38 0.39 0.39 0.40 0.40 0.39 0.39 0.42 0.46 0.48 0.50 0.51 0.51 0.49 0.48 0.49 0.50 0.52 0.54 0.55 0.53 0.51 0.50 0.49 0.49 0.48 0.48 0.48 0.49 0.50 0.52 0.54 0.55 0.57 0.59 0.60 0.61 0.63 0.67 0.71 0.76 0.80 0.85 0.87 0.90 0.93 0.96 0.98 1.01 1.04 1.02 1.06
0.29 0.27 0.17 0.26 0.28 0.28 0.29 0.40 0.42 0.45 0.45 0.41 0.39 0.36 0.38 0.36 0.34 0.30 0.29 0.45 0.40 0.34 0.29 0.27 0.22 0.26 0.31 0.36 0.34 0.33 0.34 0.34 0.35 0.34 0.35 0.36 0.38 0.38 0.39 0.40 0.41 0.40 0.45 0.49 0.50 0.51 0.51 0.51 0.50 0.50 0.51 0.53 0.53 0.53 0.53 0.52 0.50 0.48 0.48 0.48 0.48 0.49 0.50 0.50 0.50 0.52 0.53 0.55 0.56 0.57 0.58 0.61 0.66 0.69 0.71 0.74 0.78 0.81 0.84 0.88 0.92 0.97 1.02 1.02 1.02 1.05
0.34 0.29 0.21 0.19 0.24 0.25 0.31 0.41 0.47 0.49 0.51 0.48 0.45 0.40 0.46 0.47 0.45 0.36 0.26 0.31 0.38 0.36 0.37 0.34 0.28 0.24 0.30 0.34 0.32 0.31 0.32 0.32 0.34 0.34 0.34 0.35 0.37 0.39 0.41 0.42 0.42 0.42 0.43 0.47 0.50 0.51 0.52 0.51 0.50 0.51 0.52 0.52 0.52 0.51 0.51 0.51 0.51 0.49 0.48 0.48 0.48 0.49 0.50 0.52 0.52 0.54 0.54 0.54 0.55 0.54 0.57 0.60 0.62 0.65 0.68 0.69 0.73 0.75 0.78 0.83 0.87 0.94 0.96 0.98 0.99 1.01
0.38 0.26 0.21 0.23 0.30 0.35 0.39 0.44 0.47 0.48 0.47 0.43 0.47 0.48 0.47 0.41 0.42 0.37 0.34 0.37 0.33 0.33 0.31 0.30 0.26 0.23 0.26 0.33 0.29 0.31 0.32 0.32 0.33 0.34 0.34 0.36 0.39 0.41 0.41 0.41 0.41 0.41 0.42 0.44 0.48 0.51 0.52 0.51 0.50 0.50 0.52 0.54 0.54 0.52 0.51 0.51 0.53 0.53 0.51 0.50 0.50 0.49 0.50 0.52 0.52 0.53 0.53 0.53 0.53 0.55 0.55 0.56 0.58 0.61 0.63 0.65 0.69 0.71 0.75 0.80 0.84 0.89 0.90 0.92 0.93 0.93
0.23 0.28 0.21 0.17 0.19 0.24 0.30 0.36 0.35 0.41 0.44 0.37 0.36 0.39 0.42 0.43 0.43 0.43 0.42 0.41 0.30 0.31 0.30 0.27 0.20 0.22 0.25 0.33 0.30 0.31 0.32 0.33 0.34 0.36 0.37 0.37 0.38 0.40 0.40 0.40 0.40 0.40 0.42 0.43 0.45 0.47 0.50 0.50 0.48 0.49 0.53 0.54 0.54 0.53 0.54 0.54 0.53 0.52 0.52 0.52 0.50 0.49 0.50 0.50 0.52 0.51 0.50 0.50 0.49 0.51 0.53 0.54 0.57 0.58 0.60 0.63 0.67 0.69 0.73 0.76 0.80 0.84 0.85 0.87 0.88 0.90
0.30 0.29 0.24 0.17 0.15 0.13 0.13 0.16 0.19 0.23 0.28 0.35 0.38 0.37 0.41 0.40 0.39 0.37 0.31 0.33 0.28 0.32 0.35 0.31 0.27 0.29 0.27 0.30 0.30 0.30 0.31 0.32 0.34 0.36 0.38 0.39 0.38 0.39 0.40 0.39 0.38 0.39 0.40 0.42 0.44 0.45 0.46 0.48 0.49 0.50 0.52 0.54 0.55 0.54 0.54 0.56 0.58 0.57 0.54 0.51 0.51 0.49 0.48 0.48 0.49 0.49 0.49 0.49 0.49 0.49 0.51 0.53 0.56 0.57 0.58 0.61 0.64 0.67 0.71 0.74 0.76 0.78 0.80 0.83 0.83 0.86
0.34 0.34 0.30 0.24 0.19 0.17 0.16 0.15 0.21 0.28 0.30 0.27 0.31 0.34 0.35 0.41 0.43 0.42 0.40 0.34 0.28 0.30 0.30 0.33 0.32 0.30 0.28 0.28 0.29 0.31 0.34 0.32 0.32 0.37 0.38 0.39 0.40 0.41 0.39 0.38 0.38 0.39 0.40 0.41 0.41 0.44 0.47 0.48 0.48 0.51 0.54 0.54 0.55 0.56 0.56 0.57 0.58 0.59 0.58 0.55 0.51 0.49 0.47 0.47 0.47 0.47 0.47 0.48 0.48 0.48 0.49 0.50 0.51 0.54 0.56 0.59 0.61 0.65 0.68 0.69 0.71 0.73 0.73 0.77 0.79 0.81
0.33 0.30 0.29 0.30 0.27 0.23 0.22 0.22 0.24 0.23 0.20 0.22 0.23 0.26 0.33 0.35 0.37 0.37 0.34 0.30 0.36 0.32 0.26 0.34 0.37 0.33 0.27 0.25 0.27 0.27 0.30 0.30 0.30 0.32 0.34 0.37 0.39 0.40 0.40 0.40 0.40 0.40 0.39 0.41 0.42 0.42 0.44 0.46 0.49 0.51 0.53 0.53 0.55 0.57 0.57 0.58 0.59 0.60 0.60 0.58 0.55 0.50 0.47 0.47 0.46 0.47 0.47 0.48 0.49 0.49 0.50 0.53 0.55 0.55 0.55 0.57 0.59 0.60 0.62 0.64 0.65 0.68 0.71 0.73 0.72 0.73
0.28 0.20 0.25 0.28 0.26 0.26 0.26 0.24 0.26 0.24 0.22 0.20 0.19 0.19 0.20 0.24 0.28 0.28 0.31 0.34 0.35 0.31 0.25 0.28 0.31 0.30 0.27 0.24 0.24 0.25 0.25 0.29 0.31 0.33 0.37 0.39 0.38 0.39 0.41 0.40 0.38 0.37 0.39 0.41 0.42 0.42 0.43 0.44 0.46 0.49 0.50 0.50 0.53 0.56 0.57 0.58 0.59 0.61 0.60 0.59 0.56 0.52 0.48 0.48 0.48 0.47 0.47 0.48 0.49 0.49 0.52 0.54 0.56 0.58 0.58 0.56 0.56 0.57 0.58 0.59 0.60 0.63 0.65 0.67 0.69 0.71
0.26 0.19 0.18 0.20 0.18 0.18 0.19 0.20 0.23 0.21 0.21 0.20 0.19 0.20 0.20 0.22 0.23 0.25 0.24 0.27 0.28 0.27 0.31 0.30 0.28 0.27 0.30 0.28 0.27 0.28 0.33 0.35 0.34 0.35 0.38 0.37 0.36 0.36 0.35 0.34 0.35 0.36 0.37 0.41 0.41 0.39 0.39 0.41 0.43 0.47 0.48 0.49 0.51 0.56 0.58 0.59 0.60 0.61 0.59 0.57 0.56 0.52 0.50 0.49 0.48 0.47 0.47 0.47 0.48 0.50 0.52 0.54 0.56 0.57 0.58 0.57 0.53 0.52 0.54 0.56 0.58 0.60 0.61 0.62 0.64 0.67
0.24 0.18 0.20 0.21 0.18 0.16 0.17 0.20 0.22 0.22 0.21 0.18 0.20 0.21 0.23 0.25 0.26 0.27 0.25 0.24 0.25 0.25 0.26 0.27 0.26 0.25 0.31 0.34 0.30 0.28 0.29 0.32 0.31 0.28 0.26 0.29 0.33 0.33 0.31 0.29 0.30 0.31 0.36 0.38 0.38 0.39 0.37 0.38 0.41 0.46 0.46 0.46 0.48 0.54 0.56 0.58 0.61 0.61 0.59 0.59 0.59 0.56 0.52 0.49 0.46 0.46 0.46 0.45 0.47 0.50 0.52 0.54 0.55 0.57 0.57 0.58 0.57 0.55 0.52 0.51 0.52 0.54 0.56 0.58 0.60 0.62
0.29 0.22 0.27 0.26 0.19 0.16 0.18 0.18 0.18 0.21 0.22 0.22 0.21 0.22 0.23 0.22 0.19 0.19 0.18 0.19 0.19 0.18 0.21 0.23 0.23 0.24 0.25 0.23 0.22 0.21 0.20 0.19 0.19 0.19 0.21 0.23 0.25 0.26 0.26 0.27 0.28 0.32 0.35 0.37 0.40 0.39 0.39 0.40 0.41 0.42 0.44 0.45 0.45 0.50 0.55 0.57 0.61 0.61 0.59 0.61 0.62 0.61 0.58 0.51 0.47 0.46 0.46 0.46 0.47 0.48 0.50 0.52 0.55 0.57 0.59 0.60 0.59 0.58 0.57 0.55 0.52 0.49 0.50 0.52 0.54 0.57
0.29 0.25 0.24 0.25 0.21 0.19 0.20 0.23 0.22 0.25 0.25 0.20 0.19 0.19 0.18 0.17 0.18 0.18 0.20 0.21 0.22 0.24 0.21 0.19 0.18 0.21 0.23 0.24 0.21 0.17 0.14 0.14 0.17 0.20 0.20 0.18 0.18 0.21 0.24 0.27 0.29 0.31 0.35 0.40 0.42 0.41 0.39 0.42 0.42 0.42 0.42 0.43 0.43 0.46 0.54 0.58 0.60 0.61 0.62 0.62 0.63 0.64 0.61 0.58 0.55 0.50 0.47 0.47 0.47 0.47 0.48 0.50 0.52 0.54 0.57 0.59 0.60 0.61 0.60 0.58 0.56 0.52 0.49 0.48 0.51 0.55
0.27 0.24 0.22 0.25 0.18 0.17 0.19 0.23 0.26 0.22 0.15 0.14 0.18 0.19 0.19 0.18 0.19 0.19 0.19 0.20 0.21 0.22 0.20 0.20 0.18 0.21 0.24 0.26 0.22 0.18 0.17 0.15 0.14 0.15 0.20 0.21 0.20 0.20 0.23 0.26 0.29 0.33 0.36 0.39 0.40 0.42 0.38 0.34 0.37 0.39 0.40 0.40 0.41 0.50 0.55 0.60 0.60 0.64 0.67 0.65 0.65 0.63 0.62 0.60 0.59 0.57 0.54 0.49 0.48 0.48 0.48 0.49 0.50 0.52 0.54 0.58 0.60 0.60 0.60 0.59 0.57 0.56 0.54 0.51 0.51 0.51
0.22 0.23 0.22 0.24 0.19 0.14 0.16 0.20 0.17 0.14 0.14 0.16 0.16 0.21 0.25 0.24 0.22 0.20 0.18 0.17 0.17 0.19 0.20 0.21 0.21 0.22 0.23 0.25 0.23 0.21 0.19 0.18 0.17 0.17 0.19 0.25 0.25 0.22 0.23 0.27 0.31 0.34 0.35 0.37 0.36 0.34 0.31 0.28 0.31 0.38 0.40 0.42 0.45 0.50 0.54 0.57 0.61 0.62 0.65 0.67 0.64 0.64 0.62 0.62 0.60 0.59 0.59 0.56 0.51 0.49 0.49 0.48 0.49 0.50 0.52 0.55 0.58 0.59 0.58 0.58 0.58 0.57 0.55 0.52 0.49 0.48
0.24 0.24 0.25 0.25 0.23 0.21 0.18 0.17 0.12 0.10 0.14 0.18 0.21 0.21 0.21 0.21 0.19 0.18 0.17 0.17 0.18 0.19 0.20 0.20 0.20 0.19 0.19 0.18 0.18 0.19 0.18 0.18 0.20 0.22 0.24 0.26 0.28 0.28 0.31 0.30 0.29 0.30 0.32 0.34 0.33 0.32 0.32 0.34 0.36 0.39 0.44 0.49 0.49 0.50 0.55 0.56 0.61 0.61 0.60 0.65 0.66 0.64 0.64 0.63 0.62 0.62 0.63 0.62 0.60 0.55 0.52 0.49 0.48 0.48 0.50 0.52 0.55 0.58 0.58 0.58 0.58 0.56 0.55 0.53 0.51 0.50
0.29 0.29 0.27 0.21 0.26 0.16 0.16 0.16 0.16 0.20 0.17 0.16 0.16 0.14 0.15 0.14 0.16 0.16 0.13 0.13 0.16 0.19 0.21 0.21 0.19 0.19 0.18 0.18 0.19 0.19 0.21 0.23 0.23 0.23 0.25 0.24 0.27 0.36 0.37 0.32 0.31 0.34 0.37 0.38 0.39 0.40 0.43 0.47 0.47 0.47 0.48 0.48 0.51 0.51 0.52 0.56 0.57 0.59 0.60 0.59 0.62 0.65 0.64 0.64 0.63 0.63 0.64 0.64 0.64 0.63 0.61 0.59 0.55 0.51 0.50 0.51 0.51 0.54 0.58 0.59 0.59 0.58 0.57 0.54 0.51 0.48
0.32 0.23 0.27 0.21 0.21 0.22 0.16 0.15 0.15 0.14 0.10 0.09 0.10 0.11 0.15 0.20 0.20 0.21 0.20 0.16 0.19 0.20 0.21 0.20 0.18 0.17 0.17 0.18 0.19 0.19 0.20 0.23 0.22 0.20 0.19 0.27 0.34 0.34 0.37 0.40 0.43 0.43 0.44 0.45 0.46 0.46 0.46 0.49 0.50 0.51 0.50 0.50 0.49 0.50 0.51 0.51 0.54 0.54 0.56 0.57 0.59 0.62 0.63 0.64 0.63 0.64 0.66 0.66 0.67 0.68 0.67 0.65 0.64 0.62 0.60 0.55 0.50 0.50 0.56 0.61 0.62 0.59 0.57 0.54 0.52 0.50
0.34 0.32 0.29 0.22 0.18 0.19 0.17 0.13 0.12 0.10 0.10 0.11 0.09 0.11 0.17 0.21 0.22 0.26 0.24 0.17 0.19 0.17 0.18 0.20 0.20 0.21 0.21 0.20 0.21 0.23 0.23 0.21 0.20 0.19 0.22 0.35 0.35 0.38 0.42 0.47 0.48 0.49 0.49 0.49 0.48 0.46 0.46 0.48 0.49 0.49 0.50 0.50 0.48 0.50 0.52 0.51 0.50 0.50 0.50 0.53 0.57 0.60 0.61 0.62 0.65 0.67 0.68 0.68 0.70 0.70 0.70 0.68 0.67 0.66 0.65 0.61 0.54 0.51 0.55 0.60 0.62 0.60 0.57 0.56 0.56 0.54
0.27 0.27 0.26 0.22 0.19 0.17 0.16 0.14 0.12 0.14 0.11 0.10 0.11 0.13 0.21 0.25 0.28 0.27 0.17 0.15 0.15 0.15 0.21 0.26 0.25 0.24 0.24 0.27 0.27 0.27 0.25 0.22 0.20 0.23 0.37 0.41 0.40 0.42 0.44 0.45 0.46 0.47 0.48 0.49 0.50 0.50 0.49 0.48 0.47 0.46 0.48 0.49 0.50 0.51 0.50 0.50 0.49 0.48 0.48 0.48 0.52 0.54 0.57 0.62 0.66 0.69 0.71 0.71 0.71 0.71 0.70 0.70 0.69 0.69 0.68 0.66 0.62 0.57 0.57 0.61 0.64 0.61 0.57 0.56 0.57 0.57
0.21 0.23 0.24 0.17 0.16 0.16 0.17 0.16 0.16 0.16 0.18 0.16 0.14 0.18 0.24 0.30 0.29 0.19 0.13 0.13 0.19 0.27 0.29 0.31 0.31 0.34 0.35 0.35 0.37 0.33 0.34 0.36 0.38 0.41 0.42 0.42 0.41 0.41 0.46 0.47 0.47 0.48 0.47 0.47 0.48 0.50 0.50 0.50 0.50 0.49 0.50 0.51 0.52 0.52 0.52 0.51 0.49 0.48 0.48 0.49 0.48 0.50 0.55 0.59 0.62 0.65 0.67 0.70 0.71 0.71 0.70 0.71 0.70 0.69 0.70 0.71 0.69 0.65 0.62 0.62 0.64 0.63 0.60 0.57 0.57 0.58
0.19 0.20 0.21 0.21 0.18 0.15 0.15 0.14 0.13 0.15 0.16 0.16 0.19 0.24 0.30 0.25 0.18 0.16 0.18 0.27 0.33 0.34 0.37 0.40 0.38 0.38 0.40 0.41 0.42 0.43 0.44 0.45 0.46 0.46 0.46 0.45 0.43 0.44 0.46 0.46 0.47 0.47 0.49 0.49 0.49 0.49 0.48 0.50 0.51 0.51 0.51 0.53 0.53 0.53 0.52 0.51 0.49 0.49 0.50 0.50 0.50 0.51 0.55 0.58 0.59 0.61 0.62 0.64 0.66 0.68 0.70 0.71 0.72 0.72 0.71 0.72 0.72 0.70 0.67 0.66 0.67 0.66 0.63 0.60 0.57 0.56
0.16 0.16 0.15 0.15 0.17 0.19 0.19 0.16 0.15 0.12 0.13 0.16 0.23 0.26 0.33 0.21 0.20 0.27 0.34 0.36 0.37 0.38 0.40 0.40 0.41 0.42 0.41 0.41 0.44 0.43 0.43 0.44 0.45 0.45 0.46 0.47 0.47 0.46 0.47 0.46 0.46 0.47 0.48 0.49 0.48 0.49 0.49 0.48 0.49 0.50 0.51 0.53 0.55 0.55 0.53 0.51 0.48 0.49 0.51 0.51 0.53 0.55 0.56 0.58 0.60 0.61 0.61 0.61 0.61 0.64 0.66 0.70 0.72 0.73 0.74 0.73 0.72 0.71 0.69 0.70 0.69 0.67 0.65 0.62 0.58 0.55
0.23 0.17 0.17 0.18 0.20 0.15 0.16 0.15 0.14 0.14 0.15 0.25 0.25 0.21 0.28 0.30 0.36 0.40 0.40 0.38 0.42 0.43 0.41 0.40 0.43 0.45 0.45 0.44 0.44 0.44 0.44 0.45 0.46 0.46 0.45 0.45 0.45 0.46 0.47 0.48 0.49 0.50 0.50 0.52 0.53 0.53 0.53 0.51 0.51 0.51 0.52 0.55 0.56 0.57 0.56 0.54 0.51 0.51 0.51 0.52 0.56 0.57 0.57 0.57 0.58 0.60 0.60 0.61 0.61 0.62 0.63 0.65 0.69 0.72 0.73 0.73 0.73 0.72 0.70 0.70 0.70 0.69 0.67 0.65 0.60 0.56
0.23 0.17 0.17 0.15 0.23 0.21 0.17 0.17 0.20 0.25 0.28 0.32 0.33 0.34 0.39 0.44 0.47 0.48 0.49 0.48 0.46 0.45 0.48 0.45 0.44 0.46 0.49 0.49 0.49 0.49 0.47 0.48 0.50 0.50 0.48 0.46 0.45 0.46 0.48 0.49 0.50 0.50 0.51 0.51 0.52 0.54 0.54 0.53 0.53 0.54 0.54 0.56 0.58 0.58 0.58 0.57 0.54 0.53 0.53 0.56 0.58 0.58 0.57 0.57 0.58 0.58 0.58 0.60 0.61 0.61 0.62 0.64 0.66 0.68 0.71 0.73 0.73 0.71 0.70 0.70 0.70 0.68 0.68 0.66 0.63 0.58
0.28 0.29 0.31 0.27 0.25 0.29 0.30 0.28 0.29 0.31 0.33 0.35 0.39 0.43 0.44 0.47 0.51 0.53 0.51 0.50 0.52 0.49 0.46 0.47 0.48 0.48 0.48 0.50 0.47 0.47 0.45 0.46 0.45 0.49 0.50 0.52 0.52 0.55 0.58 0.59 0.59 0.58 0.57 0.55 0.52 0.51 0.52 0.52 0.52 0.52 0.52 0.54 0.57 0.58 0.59 0.60 0.58 0.54 0.55 0.59 0.60 0.60 0.60 0.59 0.58 0.58 0.58 0.59 0.61 0.62 0.63 0.62 0.63 0.66 0.69 0.72 0.73 0.73 0.73 0.72 0.71 0.69 0.68 0.67 0.65 0.62
0.29 0.32 0.30 0.25 0.28 0.27 0.21 0.25 0.29 0.30 0.34 0.38 0.39 0.43 0.47 0.49 0.50 0.51 0.51 0.51 0.51 0.50 0.50 0.50 0.49 0.47 0.45 0.42 0.40 0.40 0.39 0.37 0.36 0.35 0.36 0.40 0.40 0.43 0.47 0.50 0.52 0.52 0.51 0.49 0.48 0.49 0.49 0.49 0.47 0.47 0.49 0.49 0.53 0.54 0.55 0.56 0.57 0.57 0.57 0.58 0.59 0.61 0.62 0.60 0.59 0.58 0.58 0.59 0.61 0.63 0.64 0.62 0.62 0.64 0.66 0.68 0.72 0.74 0.74 0.75 0.74 0.72 0.70 0.69 0.67 0.65
0.25 0.35 0.30 0.28 0.29 0.26 0.22 0.28 0.32 0.35 0.37 0.40 0.41 0.40 0.41 0.43 0.47 0.47 0.48 0.48 0.47 0.47 0.48 0.47 0.46 0.41 0.36 0.31 0.29 0.31 0.32 0.34 0.30 0.29 0.30 0.33 0.35 0.36 0.35 0.35 0.35 0.36 0.36 0.38 0.40 0.42 0.43 0.44 0.44 0.44 0.45 0.47 0.50 0.52 0.52 0.52 0.52 0.53 0.55 0.56 0.56 0.58 0.61 0.61 0.60 0.59 0.59 0.60 0.62 0.62 0.64 0.63 0.63 0.64 0.65 0.66 0.68 0.70 0.73 0.74 0.75 0.73 0.70 0.69 0.68 0.67
0.29 0.33 0.25 0.28 0.28 0.29 0.32 0.33 0.35 0.37 0.37 0.39 0.42 0.43 0.43 0.43 0.43 0.43 0.42 0.45 0.45 0.44 0.43 0.41 0.40 0.36 0.33 0.29 0.29 0.26 0.25 0.24 0.27 0.28 0.28 0.29 0.31 0.31 0.30 0.30 0.29 0.29 0.30 0.30 0.31 0.32 0.32 0.34 0.35 0.38 0.40 0.42 0.46 0.49 0.50 0.50 0.50 0.50 0.51 0.51 0.52 0.54 0.56 0.58 0.60 0.59 0.60 0.60 0.60 0.62 0.63 0.64 0.63 0.63 0.64 0.65 0.67 0.69 0.72 0.73 0.73 0.73 0.73 0.75 0.75 0.73
0.31 0.25 0.30 0.29 0.26 0.24 0.25 0.29 0.35 0.30 0.28 0.34 0.36 0.38 0.39 0.42 0.42 0.41 0.42 0.40 0.38 0.36 0.35 0.33 0.32 0.33 0.32 0.28 0.25 0.23 0.21 0.21 0.22 0.25 0.24 0.24 0.23 0.23 0.23 0.23 0.22 0.23 0.23 0.24 0.25 0.26 0.26 0.27 0.27 0.27 0.29 0.32 0.37 0.40 0.42 0.45 0.47 0.48 0.49 0.48 0.48 0.49 0.50 0.54 0.56 0.57 0.57 0.59 0.59 0.59 0.61 0.63 0.64 0.63 0.62 0.63 0.64 0.66 0.69 0.75 0.78 0.78 0.76 0.74 0.77 0.77
0.28 0.29 0.31 0.26 0.25 0.24 0.29 0.33 0.35 0.34 0.33 0.34 0.35 0.38 0.39 0.40 0.39 0.37 0.35 0.33 0.31 0.30 0.29 0.27 0.26 0.26 0.26 0.25 0.24 0.21 0.20 0.19 0.18 0.19 0.19 0.20 0.20 0.20 0.20 0.19 0.19 0.18 0.18 0.20 0.20 0.20 0.21 0.22 0.23 0.23 0.22 0.23 0.27 0.30 0.33 0.36 0.41 0.44 0.46 0.47 0.46 0.45 0.45 0.48 0.51 0.55 0.56 0.56 0.56 0.57 0.58 0.62 0.64 0.64 0.64 0.63 0.63 0.64 0.66 0.68 0.73 0.78 0.79 0.78 0.78 0.77
Wind_Speed
37 38 40 42 42 43 43 43 40 35 34 35 34 34 34 33 32 31 28 26 27 28 30 31 32 32 32 31 30 29 28 28 28 28 27 26 25 25 25 26 27 27 26 25 24 24 23 24 24 24 24 24 25 26 26 26 26 26 26 25 25 26 25 24 23 23 22 22 22 22 22 22 23 23 24 24 24 24 24 24 24 24 25 25 24 24
35 39 41 41 39 40 42 42 39 36 36 36 35 35 35 35 33 31 30 28 28 30 31 31 32 33 33 32 31 30 30 29 29 29 28 28 27 26 26 27 27 27 27 26 25 24 24 24 24 24 24 24 25 26 27 27 27 27 27 26 26 26 26 25 25 24 23 23 23 23 23 23 23 24 25 25 25 26 26 26 25 25 25 25 25 25
32 37 38 36 36 37 38 39 39 38 37 36 35 35 35 34 32 31 31 30 29 31 32 32 33 35 34 33 33 32 31 30 30 30 29 29 28 27 26 26 27 27 27 27 27 26 26 26 26 25 25 25 26 26 27 27 27 27 27 27 27 27 27 27 26 25 25 25 24 24 24 24 24 24 25 25 26 26 27 27 27 26 26 26 26 26
30 34 35 33 34 36 37 38 39 39 38 37 37 36 35 34 33 32 31 30 31 31 31 31 33 35 35 34 34 34 33 32 32 32 32 31 30 30 29 27 27 28 28 28 28 28 28 27 27 27 26 26 26 26 26 26 27 27 27 27 27 27 27 28 28 27 27 26 26 25 24 25 25 25 25 25 25 26 26 26 26 26 26 26 26 27
31 30 32 32 32 34 37 38 40 39 39 39 39 38 36 34 34 33 30 30 31 31 31 31 34 36 36 36 35 33 33 33 34 33 33 32 32 31 31 30 29 29 30 30 30 29 29 29 28 28 28 27 27 27 27 27 27 27 27 28 28 28 28 28 29 29 28 27 27 26 26 26 26 26 26 26 26 26 26 26 26 26 27 27 27 27
35 30 30 31 30 32 34 37 39 39 38 39 40 40 37 35 35 33 31 31 31 32 31 30 33 34 34 36 35 32 31 32 32 33 33 32 32 31 31 30 29 29 29 30 30 30 30 30 29 29 29 28 28 28 28 28 28 27 27 28 28 28 28 29 29 29 29 28 28 28 27 27 27 27 27 27 27 27 27 27 27 27 27 28 28 28
37 34 32 31 31 31 32 34 37 38 37 38 38 38 38 37 36 34 33 33 33 33 31 30 32 33 32 34 35 32 31 32 31 32 32 32 31 31 31 30 29 29 29 29 29 29 30 30 30 29 28 28 28 28 28 28 28 29 28 28 28 28 28 29 29 30 30 29 29 29 29 28 28 28 28 28 28 28 28 28 27 28 28 28 28 28
38 37 36 35 33 32 32 32 33 35 35 35 35 36 38 38 37 36 35 35 34 33 32 32 33 35 36 36 35 34 34 34 33 33 32 32 32 32 32 32 31 30 29 29 29 29 30 30 30 29 28 28 28 29 29 28 29 29 30 30 30 29 29 29 30 30 31 31 30 31 30 30 29 29 29 29 29 29 28 28 28 28 28 29 29 29
40 40 38 37 36 34 34 32 31 33 34 32 31 33 37 38 38 37 36 36 34 34 36 36 33 35 38 35 33 34 35 35 34 33 33 32 33 33 33 33 32 31 30 29 30 29 29 30 30 29 28 28 28 29 30 30 30 29 30 30 31 31 31 30 30 31 31 31 32 32 32 31 31 31 30 30 30 30 29 29 29 29 29 30 30 29
40 41 39 36 36 36 35 33 31 32 33 31 28 29 30 32 34 35 34 34 33 34 38 39 35 35 37 35 33 33 34 34 33 31 31 32 33 33 33 33 33 32 30 29 29 28 28 29 29 29 29 29 29 29 30 31 31 31 30 31 31 32 32 32 32 32 32 32 33 32 33 33 32 32 31 31 30 30 30 30 30 30 30 30 30 31
38 37 37 36 35 35 33 33 33 32 32 30 29 29 28 29 31 31 31 31 31 35 39 40 37 35 35 34 33 33 32 32 31 31 31 31 32 32 33 32 32 31 30 30 29 29 29 29 29 30 31 31 31 30 31 31 31 32 32 32 32 32 32 32 32 33 33 33 33 33 34 34 34 33 33 32 32 31 31 31 31 31 31 31 31 32
36 35 36 35 34 33 31 32 33 33 32 31 30 30 29 29 29 30 30 31 31 34 37 38 36 36 37 36 32 32 31 30 31 31 31 31 31 31 31 31 31 30 31 31 31 31 30 30 30 31 32 32 32 31 31 31 31 32 32 32 32 32 31 32 32 33 33 33 34 34 35 35 35 35 34 34 34 33 33 33 32 32 32 32 32 33
38 37 36 34 33 33 32 31 30 30 31 32 31 31 30 28 29 30 31 31 32 33 34 33 34 35 40 42 39 37 36 33 32 31 31 32 31 30 31 31 31 31 31 32 32 31 31 30 30 30 31 31 31 31 32 32 32 32 32 32 32 32 32 32 32 33 34 34 34 35 35 35 35 36 36 35 35 34 34 34 34 34 33 33 33 34
38 37 37 35 34 35 34 32 31 31 32 33 33 33 31 28 28 31 31 29 31 33 32 31 32 33 37 41 40 40 38 36 35 33 32 32 32 32 32 32 31 31 32 32 32 32 31 31 30 31 31 31 31 31 31 32 33 32 32 32 33 33 33 32 33 33 34 35 35 35 35 35 36 36 36 36 36 36 36 36 36 35 35 35 35 35
36 36 39 39 35 35 36 35 32 31 32 33 32 32 31 29 27 27 27 27 29 30 30 31 31 31 34 35 32 32 32 33 34 33 33 33 33 33 32 32 32 32 32 31 31 32 32 32 31 31 31 31 31 30 30 30 31 32 32 32 33 33 33 33 33 33 34 34 35 35 35 35 36 36 36 36 37 37 37 37 37 37 37 36 36 36
35 33 38 40 36 35 36 34 32 30 31 31 29 30 33 33 29 24 23 24 25 27 29 32 32 33 36 37 35 32 32 33 33 32 33 33 32 31 31 31 32 32 31 30 30 31 31 32 32 32 31 31 31 30 30 29 30 31 31 32 33 33 33 33 34 34 34 34 35 35 36 35 35 36 36 36 37 37 38 38 38 38 38 38 37 37
35 32 34 37 37 38 36 33 33 32 30 30 31 32 32 31 29 26 24 22 22 24 28 30 32 33 36 38 38 37 36 34 33 33 32 30 29 29 29 29 30 31 31 30 29 29 29 30 31 31 32 31 31 31 32 31 31 31 32 33 34 34 34 34 34 35 35 35 35 35 36 36 35 36 36 36 37 37 38 38 38 38 38 38 38 38
34 31 32 35 37 39 37 33 32 31 29 30 32 32 28 27 28 28 26 24 23 25 27 29 32 32 32 33 32 32 33 31 30 31 30 29 28 28 29 30 29 30 30 29 28 28 28 28 29 30 31 31 32 32 33 33 32 32 32 32 33 34 34 35 34 34 34 34 34 35 35 35 35 35 36 36 36 36 37 37 38 38 38 38 39 39
34 31 32 35 35 35 35 35 34 31 30 31 31 30 28 27 28 28 28 27 27 28 28 30 33 33 33 35 32 30 30 28 27 28 28 27 27 27 29 31 30 29 28 28 28 28 28 28 29 29 29 30 31 32 33 33 32 32 32 32 32 32 33 33 33 33 33 33 33 34 34 35 35 35 35 36 36 36 36 37 37 37 37 38 38 39
34 32 31 33 33 32 33 36 37 35 32 31 30 30 30 29 28 29 29 28 27 28 27 29 31 32 34 36 33 31 29 27 26 27 27 26 27 28 29 30 30 29 29 29 29 29 29 29 29 30 30 30 31 32 32 33 33 33 32 33 33 33 32 32 32 32 33 33 33 34 34 34 35 35 36 36 36 36 36 37 37 37 37 38 38 38
33 33 31 30 32 33 34 36 38 38 35 33 32 32 31 31 29 28 29 29 28 27 27 28 29 32 33 32 31 31 29 27 26 27 28 27 28 29 29 28 29 30 30 30 30 29 29 29 29 30 32 32 33 33 33 34 34 34 34 34 34 34 33 33 33 33 33 33 34 34 35 35 35 35 36 36 36 37 37 37 38 38 38 38 38 38
33 33 33 31 32 35 36 35 36 37 36 35 36 35 33 32 30 28 29 30 30 29 28 28 30 33 32 29 29 31 29 28 28 28 29 28 29 29 28 27 28 29 30 30 30 30 30 29 29 30 32 33 34 34 35 35 35 35 35 35 36 36 36 35 35 35 34 34 34 35 35 35 35 35 36 36 37 37 37 38 38 38 38 39 38 38
32 32 32 32 32 33 33 33 32 34 36 37 37 37 36 34 33 32 30 29 30 31 30 28 30 35 33 28 29 30 29 28 29 29 30 29 29 29 28 27 27 27 28 29 29 30 29 29 29 30 32 34 34 34 34 34 35 35 36 36 36 37 37 37 36 36 35 35 35 35 35 35 35 35 36 36 37 37 37 38 38 38 38 38 38 38
32 31 31 31 31 31 31 32 31 31 34 37 38 38 38 38 38 37 33 30 30 32 31 29 30 35 33 27 28 30 29 29 29 30 30 30 29 29 28 27 27 27 28 28 28 29 28 29 30 30 31 33 33 33 33 33 34 35 36 37 37 37 37 37 36 36 36 35 35 35 35 35 35 35 36 36 37 37 37 37 37 37 38 38 37 38
33 32 33 31 30 30 30 31 31 31 33 36 37 38 40 40 40 39 36 33 33 33 33 31 31 35 33 27 28 29 28 29 29 29 30 30 29 30 29 29 29 28 29 29 29 30 29 29 30 30 31 31 32 32 33 34 35 36 36 37 37 37 37 36 36 36 35 35 35 35 35 36 35 35 36 36 36 36 36 37 37 37 37 37 37 38
33 33 34 33 31 30 31 31 31 31 32 33 35 37 39 41 41 39 37 36 35 34 36 35 33 36 36 33 33 32 29 29 29 29 30 30 31 32 32 31 31 31 31 31 31 32 32 31 32 31 31 31 32 32 33 34 35 35 36 37 37 37 36 36 36 36 35 35 35 35 35 35 36 36 36 36 35 35 35 36 36 36 37 37 38 38
32 33 34 35 35 33 34 33 31 30 30 32 34 36 37 39 40 38 37 37 36 35 37 38 36 37 39 38 36 34 32 31 31 30 30 31 32 33 33 33 33 33 33 33 33 33 33 33 32 32 32 33 33 33 34 34 35 36 36 37 37 37 37 37 37 36 36 36 36 36 36 35 35 36 36 36 36 35 35 35 36 36 37 37 38 38
31 33 35 36 37 37 37 35 31 31 33 34 34 36 37 38 39 39 39 38 37 36 37 39 38 39 43 43 40 37 35 34 34 33 33 33 34 34 34 34 34 34 35 35 34 34 34 34 34 34 35 35 35 35 35 35 36 36 37 37 37 37 37 38 38 38 38 38 38 38 38 37 36 36 36 36 36 36 36 36 37 37 37 38 38 39
32 35 36 36 38 38 39 37 33 32 34 35 35 37 38 38 40 41 42 41 40 40 40 40 40 43 47 48 46 42 38 37 38 38 37 37 37 36 36 36 36 36 37 37 36 35 36 36 37 37 36 36 36 37 37 37 36 36 37 37 36 37 38 38 39 39 40 40 41 41 40 39 38 37 37 37 37 37 37 37 38 38 38 38 39 39
33 35 35 35 37 39 39 38 36 35 37 37 38 38 37 37 38 40 42 43 44 45 45 44 45 47 48 48 49 47 43 41 42 43 42 40 39 39 39 39 39 39 39 38 38 38 39 39 39 38 37 37 38 38 38 38 37 37 37 36 36 37 38 39 39 40 40 41 41 41 41 40 39 39 38 38 39 38 38 38 38 39 39 39 39 40
32 34 33 33 35 38 39 38 38 38 39 39 40 40 38 37 38 40 41 43 44 46 47 47 48 49 46 47 50 51 48 45 46 47 46 42 41 41 42 42 42 41 42 42 42 41 41 41 40 39 38 38 39 39 40 40 39 38 38 37 36 36 37 39 40 40 41 41 41 41 41 41 41 40 39 39 40 39 39 39 39 40 40 40 40 40
31 31 31 31 33 36 37 38 39 38 38 40 41 41 41 41 42 42 43 44 44 45 46 46 47 47 45 45 48 51 52 50 50 51 49 46 45 45 45 46 47 46 46 45 44 42 41 41 41 40 39 40 40 41 41 41 41 41 40 38 37 36 37 38 40 41 42 42 42 42 42 42 41 41 41 40 40 40 40 40 40 40 41 41 41 41
29 30 30 31 32 34 35 36 36 35 35 38 40 42 43 44 45 45 45 45 45 44 44 45 46 46 45 44 45 49 53 53 52 52 50 48 48 48 48 49 50 49 48 47 46 44 43 43 43 42 42 42 42 42 42 42 42 42 41 40 39 38 38 39 40 41 42 42 43 43 42 42 42 42 41 41 41 41 41 41 41 41 41 41 41 41
28 29 31 31 30 33 33 31 31 33 35 36 38 40 42 43 44 44 45 46 46 45 45 46 47 46 45 45 46 49 52 54 54 54 50 47 48 49 49 49 49 49 49 49 49 48 47 47 47 46 45 44 43 42 42 42 41 42 42 42 41 41 41 41 41 42 42 42 43 43 43 43 42 42 42 41 41 41 41 41 41 41 41 41 41 41
28 29 30 30 30 32 31 29 30 34 36 36 36 37 39 40 42 44 46 47 47 46 47 47 47 47 46 46 48 50 52 54 54 54 51 48 48 50 51 50 50 50 50 51 51 51 51 51 50 49 48 46 44 43 43 42 42 43 44 45 45 45 44 44 44 43 43 43 43 43 43 43 43 42 42 42 41 41 41 41 42 41 41 40 40 41
27 28 29 29 30 30 30 31 32 33 35 36 35 36 37 38 40 42 44 46 45 44 44 45 46 46 46 48 49 50 51 52 52 53 53 52 51 50 50 51 51 51 50 51 52 52 51 50 49 50 49 48 46 46 45 44 44 44 45 46 47 47 47 46 46 46 45 45 44 44 44 44 44 43 43 43 42 42 42 41 42 42 41 40 39 39
25 26 27 28 29 29 30 32 31 31 33 36 36 35 35 35 36 38 40 42 42 41 42 43 44 46 46 47 48 48 48 48 47 50 53 52 50 49 49 50 50 50 49 49 49 49 48 47 47 48 48 49 49 48 48 47 46 46 46 47 48 49 49 49 49 49 48 48 47 46 46 45 45 44 44 44 44 44 43 42 43 43 41 40 40 39
25 26 26 27 28 28 29 31 30 29 32 35 35 33 32 33 35 35 37 40 40 41 42 43 44 45 45 45 46 46 45 43 44 47 47 44 43 43 44 45 45 45 46 46 46 46 45 45 46 46 47 47 47 47 47 47 46 46 47 47 48 50 51 52 52 52 51 51 50 49 48 48 47 47 47 47 46 46 45 44 43 43 43 42 41 41
27 27 27 28 29 29 29 30 29 30 32 34 34 32 30 32 34 33 35 39 40 42 43 43 43 44 43 43 43 42 41 41 43 43 40 37 37 38 41 43 43 43 44 44 44 44 44 44 44 45 45 45 44 44 44 44 44 45 46 46 47 48 50 51 52 52 53 53 52 51 51 51 50 50 50 50 49 48 46 45 44 44 43 43 42 42
29 29 29 31 32 32 32 32 31 32 33 35 35 31 29 31 31 30 33 37 38 38 39 40 40 41 41 41 40 39 39 41 41 39 37 37 38 38 40 42 43 43 43 43 43 43 43 43 43 43 43 43 43 42 42 43 43 43 44 44 45 46 47 48 49 51 52 53 52 52 53 53 53 53 52 52 51 50 48 47 45 45 44 44 43 42
29 30 31 33 34 34 34 34 34 34 35 36 35 32 29 29 29 32 34 34 32 32 34 36 36 36 35 35 35 36 37 38 39 38 38 38 38 39 40 41 42 42 42 42 42 42 42 42 41 42 42 42 42 42 42 42 42 43 43 43 44 45 45 46 48 49 50 51 52 52 53 53 53 53 53 53 53 52 51 49 47 46 45 45 44 43
28 28 30 32 33 33 34 34 34 35 37 36 34 32 31 32 34 35 34 31 29 30 32 33 33 32 31 31 31 33 34 35 36 37 37 37 37 38 39 40 40 40 40 40 40 40 40 41 41 41 42 42 41 42 42 42 42 43 43 43 44 44 44 45 47 48 49 50 51 51 52 52 52 52 52 52 52 52 52 50 49 48 47 46 46 45
28 27 29 31 31 31 33 32 31 33 35 33 31 31 33 34 34 33 30 28 27 28 29 31 31 31 31 31 31 32 33 33 35 35 35 35 35 36 37 38 38 38 38 38 39 40 40 40 41 41 41 41 41 41 41 42 42 43 43 43 44 43 43 44 45 47 48 49 50 50 51 51 52 52 52 51 51 51 51 51 50 49 47 47 46 45
29 29 30 31 30 30 31 32 32 33 32 29 29 32 33 33 30 28 26 26 26 26 27 29 30 30 31 30 30 31 31 31 32 32 32 33 34 34 35 36 36 37 38 38 39 39 39 40 40 41 41 40 40 40 41 41 42 43 43 43 43 43 43 44 44 45 47 48 49 50 50 50 50 51 51 51 51 51 51 51 50 49 48 48 47 46
31 32 30 31 31 32 33 33 33 31 29 28 30 30 29 28 27 25 24 23 23 24 26 27 27 27 27 27 27 28 28 28 29 29 29 31 32 33 34 34 35 36 37 37 38 38 38 38 39 40 40 40 40 40 40 40 42 43 44 44 43 43 44 44 44 44 45 46 47 48 49 49 49 50 50 50 51 51 51 51 50 50 49 48 48 47
32 31 29 30 31 32 34 34 32 29 27 28 29 29 27 26 26 25 24 24 24 25 25 24 24 24 24 24 25 26 26 26 27 27 27 27 28 28 29 31 32 33 34 35 36 36 36 36 37 37 38 38 39 39 39 39 40 42 43 44 44 44 44 44 44 44 45 46 46 47 48 49 49 49 49 50 50 51 51 50 50 50 49 49 49 49
31 30 30 30 30 30 31 32 29 28 28 28 28 29 28 28 27 26 26 25 25 24 23 22 22 23 23 24 24 25 25 25 26 27 26 25 25 25 26 27 28 29 30 31 32 32 33 33 34 34 35 36 37 37 38 39 39 41 42 42 43 43 44 44 44 44 44 44 45 45 46 47 48 48 48 49 49 50 50 50 50 50 50 50 50 50
31 31 32 32 32 31 29 27 25 25 26 26 26 27 28 27 27 27 27 26 25 24 23 22 22 23 23 24 24 25 25 25 26 27 26 26 25 25 26 26 27 28 28 28 29 29 29 30 31 32 33 34 35 36 36 38 39 40 41 42 42 42 43 43 44 44 43 43 43 44 44 45 47 48 48 48 48 48 49 49 50 50 51 51 51 50
30 31 32 31 31 31 30 27 26 26 26 24 24 24 24 23 23 23 24 25 25 25 25 25 25 25 24 25 25 25 26 26 26 26 26 27 27 27 27 27 27 28 28 28 28 28 29 29 30 31 32 33 34 34 35 36 37 38 40 41 42 42 42 42 43 43 42 42 42 43 44 44 46 47 47 47 47 47 48 49 50 51 51 51 51 51
29 30 29 28 29 30 29 27 27 27 26 25 24 23 23 22 22 23 23 24 25 27 27 27 27 26 26 26 26 26 27 27 28 28 28 28 28 28 28 28 28 28 28 28 28 29 29 30 30 31 32 32 33 34 35 36 36 37 39 40 41 41 42 42 42 42 42 41 41 41 42 44 45 46 47 47 47 47 47 48 49 51 51 51 51 52
29 28 28 29 29 28 27 26 26 26 26 25 25 24 24 24 25 26 27 27 27 27 28 28 28 28 28 28 28 28 29 29 29 30 30 30 30 30 30 30 29 29 29 29 30 30 31 31 31 31 32 32 33 33 34 35 36 37 38 39 40 40 41 42 42 42 42 41 41 41 41 42 43 44 46 47 47 47 46 46 47 49 50 51 52 52
Wind_Direction
221 221 221 223 224 224 224 225 226 230 230 228 229 232 233 234 236 236 237 238 238 241 241 241 244 245 245 245 245 246 244 244 248 250 251 252 252 251 252 253 253 254 255 255 255 256 258 258 259 259 258 257 257 256 256 256 259 259 258 257 256 255 253 253 254 255 255 255 255 255 253 253 252 252 252 253 253 253 253 253 252 252 251 252 252 252
221 221 222 224 225 225 224 225 226 229 230 229 231 232 234 235 236 237 238 239 238 242 244 243 245 246 245 245 245 245 245 245 247 249 251 252 253 252 251 253 254 255 255 255 256 256 257 258 258 258 258 257 257 256 256 257 258 258 257 256 256 256 253 252 253 254 254 255 255 256 254 254 253 253 252 253 253 253 253 253 252 252 252 252 252 253
221 222 222 224 226 224 223 224 226 228 228 229 230 232 234 234 236 238 239 240 240 242 245 246 248 248 246 246 246 245 245 246 248 249 251 252 254 254 253 253 254 255 256 256 257 257 257 257 257 257 257 257 257 258 258 258 257 257 256 256 256 256 254 252 252 253 254 255 255 255 256 255 254 254 253 254 254 254 254 253 253 253 253 254 253 253
221 223 222 224 227 224 222 224 225 227 229 230 229 231 234 233 235 239 239 239 240 242 246 249 250 250 248 247 247 246 245 246 249 249 251 252 253 255 255 254 254 255 256 256 257 258 258 258 258 257 257 258 258 259 259 258 257 257 257 256 255 255 254 253 252 252 253 254 255 255 256 256 256 256 255 255 255 254 254 254 254 254 254 254 255 255
221 223 220 222 227 226 224 224 225 227 229 231 231 232 234 233 235 239 240 239 240 242 244 248 252 251 248 247 247 247 244 244 247 249 250 251 252 254 256 256 255 255 256 256 257 258 259 259 259 258 258 259 259 259 258 258 258 257 257 257 256 255 254 253 253 252 252 253 254 254 255 256 256 256 256 255 254 254 254 254 254 254 253 253 254 255
221 222 219 219 224 226 225 225 226 228 230 232 233 233 234 235 235 238 238 241 244 244 243 246 252 252 246 244 246 246 244 244 246 248 250 251 252 254 255 256 256 256 256 256 257 259 260 261 261 259 258 258 259 259 258 258 258 258 258 257 256 255 254 254 254 253 252 253 253 253 253 254 254 254 254 254 253 253 253 254 254 253 253 253 254 254
221 220 220 220 222 224 227 228 227 227 230 233 233 232 234 235 235 235 237 241 245 246 245 244 249 252 248 245 246 245 245 246 247 248 249 251 252 253 254 255 256 256 256 257 258 260 261 262 261 260 258 258 259 259 259 259 258 257 257 257 257 256 255 255 254 253 252 253 253 252 252 253 253 254 254 255 255 255 254 254 254 254 253 253 254 254
220 218 221 222 223 226 228 229 228 227 229 234 233 231 232 234 234 235 237 241 244 247 247 244 246 253 252 248 246 246 247 248 248 248 250 251 252 253 254 255 256 256 257 258 260 260 261 262 260 260 259 259 259 260 260 259 258 257 257 257 257 257 257 256 255 254 253 253 253 253 253 253 253 254 255 255 255 255 255 255 255 255 254 254 254 254
221 219 221 222 224 227 229 229 228 227 229 233 236 235 234 234 235 236 239 242 245 247 247 243 242 249 252 247 245 245 247 249 249 249 251 252 253 254 254 255 256 257 258 259 260 261 261 261 259 259 260 261 261 260 259 259 259 258 258 258 257 257 257 257 256 256 255 254 253 253 254 254 255 255 255 255 255 255 255 255 255 255 255 255 255 255
224 223 222 223 226 228 229 229 228 228 231 233 237 241 239 237 236 236 239 241 243 244 245 242 238 244 252 248 243 244 246 248 249 249 251 253 254 254 255 256 256 257 258 257 259 260 260 260 259 260 261 263 263 262 260 260 259 259 259 259 258 257 257 257 256 256 256 255 254 254 254 254 255 256 256 256 255 255 254 255 255 255 256 256 256 256
223 223 222 224 227 228 228 229 229 230 231 233 236 240 240 238 238 238 239 240 241 242 243 242 237 241 251 249 242 242 244 247 251 251 251 252 253 254 254 255 257 257 256 256 258 261 261 261 261 261 263 263 263 263 262 261 260 260 260 259 258 258 257 256 256 255 255 256 256 256 255 254 255 255 256 256 255 255 255 255 255 255 256 256 257 257
219 220 222 224 225 223 224 228 231 231 230 232 234 235 236 237 236 237 238 237 238 241 244 242 237 238 245 246 243 244 245 246 250 252 253 254 253 254 254 254 256 257 258 259 260 262 262 262 262 262 262 262 263 263 262 262 262 261 260 259 258 258 257 256 256 255 256 256 256 256 256 255 254 254 255 256 255 255 255 256 256 256 257 257 257 258
219 220 222 223 222 219 220 224 227 230 230 231 231 231 234 236 235 235 236 236 238 242 245 240 235 237 244 248 248 249 249 248 249 251 253 254 254 255 255 255 256 258 260 260 260 261 262 262 261 260 261 262 264 263 261 260 261 262 261 259 258 258 257 256 256 256 256 257 257 257 256 256 255 254 254 255 255 255 256 256 256 257 257 258 258 258
219 221 220 220 221 219 220 222 224 227 228 229 228 228 232 236 238 237 236 239 240 243 244 239 236 240 247 251 251 250 250 250 249 249 250 252 254 255 256 257 258 260 260 260 259 259 260 260 260 260 261 263 264 263 261 260 260 261 261 259 258 258 257 257 257 257 257 257 258 258 257 257 255 254 254 254 255 255 256 256 256 257 258 258 259 259
218 222 220 219 221 220 222 226 228 228 228 228 229 229 231 236 240 240 240 243 242 242 242 238 238 242 244 248 249 249 252 251 249 249 251 252 253 254 256 257 259 260 260 260 259 258 259 259 260 261 262 262 263 263 263 262 260 259 259 258 258 258 257 257 257 258 259 259 258 258 258 258 257 255 255 255 255 255 255 256 256 256 257 258 259 259
220 225 222 220 221 220 223 228 228 227 228 228 228 228 231 234 238 242 245 245 246 246 242 239 241 245 246 250 251 250 252 252 251 251 251 251 252 252 254 257 259 259 258 259 260 260 260 259 260 261 262 263 262 262 262 263 262 259 258 258 258 258 258 257 258 259 260 259 259 258 258 259 258 256 256 256 256 255 255 255 256 256 257 258 259 259
221 225 221 218 221 221 223 226 226 226 227 226 224 226 231 234 235 240 244 244 245 248 244 240 245 249 251 253 251 248 249 249 250 251 250 249 249 249 252 257 259 258 258 260 260 261 262 262 261 262 262 262 262 262 262 263 263 262 261 260 259 260 260 259 259 260 260 259 259 259 259 258 258 256 256 257 257 256 256 256 256 257 257 257 257 258
223 225 223 220 221 223 224 226 227 229 229 226 225 226 229 233 235 237 243 243 242 247 247 243 245 248 249 250 247 246 248 249 249 250 250 249 248 248 251 255 259 258 258 258 259 261 263 263 264 264 263 263 263 264 263 263 263 263 263 263 263 263 262 260 259 259 259 259 259 259 259 258 257 257 257 257 258 258 257 256 256 257 257 257 257 257
224 226 227 224 224 224 224 226 228 230 231 230 229 227 226 231 232 231 236 241 242 246 250 246 246 247 247 247 248 249 250 249 248 248 249 249 250 252 253 255 259 259 256 258 261 263 263 264 266 266 265 264 264 264 263 262 262 263 263 264 264 265 263 260 258 258 259 259 259 260 259 258 258 257 257 257 257 258 257 257 256 257 257 257 257 257
224 227 228 227 226 225 224 226 227 228 230 231 231 229 229 233 235 232 234 239 242 245 249 248 246 246 246 247 249 251 251 249 246 247 249 251 253 256 256 258 259 259 258 259 262 264 265 266 266 266 266 265 264 265 264 262 262 263 264 264 264 263 261 259 258 259 259 260 260 260 259 258 258 257 257 257 257 257 257 257 257 257 257 257 257 257
225 228 229 227 227 227 226 227 228 228 229 229 229 229 231 233 235 237 236 237 241 243 246 248 248 248 247 247 247 249 251 250 247 249 251 252 254 257 259 261 261 259 258 260 262 263 265 267 268 267 267 266 265 266 265 264 263 263 264 264 263 261 259 259 259 260 261 261 260 260 259 259 258 258 257 257 257 257 257 258 258 258 258 257 257 256
226 227 228 227 227 228 230 231 232 232 230 231 232 232 233 232 233 237 238 237 239 242 244 248 251 251 247 246 247 249 251 251 250 252 252 252 255 258 261 262 261 261 261 260 261 262 265 267 269 270 270 268 268 268 267 265 265 264 263 263 262 260 259 260 261 261 261 261 260 260 260 260 259 259 258 258 258 258 258 258 258 258 258 258 257 256
228 228 228 229 229 231 233 234 235 235 234 234 235 235 235 234 233 236 239 238 239 242 246 250 253 253 248 245 247 250 250 251 251 252 253 254 255 257 260 261 262 264 263 262 262 263 264 266 269 271 271 271 270 269 267 266 265 265 264 263 262 261 260 260 260 260 260 260 260 260 260 260 260 260 259 258 259 259 259 259 259 259 258 258 257 256
228 228 227 229 232 233 235 236 237 238 236 235 236 236 235 235 236 239 242 243 242 242 244 247 251 252 248 244 248 251 251 251 251 252 253 254 254 256 258 260 263 265 264 263 264 264 264 265 268 270 271 271 271 269 268 267 267 265 264 262 261 261 261 261 260 260 259 259 260 260 261 261 261 260 260 259 259 259 259 259 259 259 258 258 257 257
227 227 227 228 230 231 231 233 234 234 234 235 236 236 236 236 238 241 244 247 247 243 241 244 249 250 247 245 247 250 250 250 250 252 254 254 255 256 258 260 263 264 264 263 265 266 267 267 268 270 270 271 271 269 267 268 269 267 264 262 261 262 262 261 260 259 259 259 260 260 261 261 261 260 260 260 260 259 259 259 259 259 258 258 258 257
226 228 227 227 227 227 228 230 231 232 233 235 237 237 237 237 238 241 244 246 247 246 244 245 248 251 250 249 248 248 249 250 251 251 253 255 256 258 259 260 261 262 264 265 266 267 268 269 270 270 269 269 270 268 266 267 269 268 266 263 262 262 261 260 259 259 258 259 259 260 261 261 261 260 260 260 260 260 259 259 259 259 259 258 258 258
227 230 229 230 231 231 231 233 234 235 234 234 236 237 237 238 238 240 242 243 245 247 247 246 248 252 252 250 249 249 251 253 254 254 254 256 257 259 260 260 261 261 263 265 266 266 267 269 270 270 269 269 269 267 266 267 269 270 268 265 262 260 259 259 258 258 258 258 259 260 261 261 261 261 260 260 260 260 260 260 260 260 260 259 259 259
228 230 229 231 234 235 236 236 236 237 238 238 238 238 238 239 239 241 242 244 246 248 249 248 248 250 251 250 251 253 255 257 258 258 258 258 258 259 261 261 261 261 262 264 265 266 268 269 270 269 269 270 270 268 268 269 270 270 269 267 263 260 258 258 258 258 258 259 260 261 262 262 262 262 261 261 261 260 260 261 260 260 260 260 260 260
230 232 231 233 236 238 239 239 238 238 241 241 240 240 241 240 240 242 244 246 247 248 251 252 251 251 252 252 254 255 257 259 260 260 261 260 260 260 261 262 262 262 264 264 266 268 269 269 270 270 269 270 270 269 269 269 268 268 269 268 266 261 259 258 258 259 259 260 261 262 263 263 263 263 262 262 261 261 261 261 261 261 261 261 261 261
232 234 235 235 238 240 240 240 239 240 242 243 243 243 243 243 243 244 245 247 247 249 251 253 254 254 253 254 256 256 258 260 261 261 260 260 261 262 262 263 263 264 265 266 268 270 269 269 270 270 269 269 269 269 268 269 268 267 267 267 266 263 259 258 259 260 260 261 261 262 263 263 263 263 263 262 262 261 262 262 262 262 262 262 261 261
232 234 234 236 239 241 241 241 241 241 243 244 244 244 244 245 246 246 247 248 249 251 252 253 254 255 255 257 258 258 259 261 261 261 259 259 261 262 262 262 262 264 266 268 269 269 269 268 269 269 268 268 268 268 267 267 267 266 265 265 266 264 260 258 259 261 262 262 263 263 263 263 263 263 264 263 262 262 262 262 262 262 262 262 262 262
231 233 234 235 239 241 240 242 243 243 245 246 245 244 244 246 247 247 248 249 250 252 253 253 254 256 257 258 260 260 260 260 260 260 261 262 262 261 261 261 262 264 266 267 267 268 268 269 269 268 268 268 268 269 268 267 267 265 264 265 265 264 261 260 260 261 263 264 264 264 264 263 263 263 264 264 263 263 263 263 263 263 263 262 262 262
229 232 234 234 238 242 242 242 244 245 246 245 244 244 245 247 248 250 251 251 251 253 254 255 256 258 260 260 260 261 260 260 260 260 262 264 265 264 263 262 263 265 265 265 265 266 268 269 268 267 267 268 268 268 268 267 266 265 264 264 264 264 263 262 262 263 264 265 265 265 264 264 264 264 264 264 264 264 264 264 263 263 263 263 263 262
229 232 235 235 239 243 242 242 244 245 245 246 246 246 248 249 250 252 252 252 252 253 255 257 259 260 261 260 260 261 261 261 261 261 262 264 265 265 264 263 264 265 265 265 265 266 267 268 267 266 266 267 267 267 267 267 266 266 265 263 263 262 262 263 264 264 265 265 265 265 265 265 265 265 265 265 264 264 264 264 264 264 263 263 263 263
231 233 236 237 241 244 244 243 244 245 246 249 251 250 250 252 253 254 254 254 253 254 256 257 259 260 260 261 261 261 262 262 262 263 264 264 264 264 264 264 264 264 265 266 267 267 267 267 266 266 266 266 266 266 267 267 268 268 267 264 263 262 262 263 263 264 265 265 265 265 265 265 265 265 265 265 265 264 264 265 265 264 264 263 263 263
232 233 236 238 240 244 245 243 245 250 253 253 253 252 251 253 254 254 256 255 255 256 257 258 259 260 260 260 261 261 262 264 264 264 264 263 263 264 264 265 265 265 266 266 266 267 267 267 266 265 265 265 266 266 267 268 268 268 268 266 265 263 263 263 264 264 265 265 264 264 264 264 265 265 265 265 265 265 265 265 265 264 264 264 263 263
232 233 237 239 240 243 246 247 250 257 258 254 251 250 250 253 254 255 257 258 256 256 257 258 259 259 260 260 261 262 263 265 265 263 262 262 262 263 264 265 265 266 266 266 266 266 266 267 266 266 265 265 266 266 267 268 268 268 268 267 266 265 264 264 264 265 265 265 265 264 264 263 264 265 265 265 265 265 265 266 265 264 263 263 263 263
235 236 237 240 242 244 248 252 253 254 255 253 252 251 252 255 257 258 260 260 259 258 258 258 259 260 260 261 261 262 263 264 263 262 261 262 262 263 264 265 265 265 265 265 265 265 265 266 266 267 267 267 267 266 267 267 268 267 267 267 267 266 264 264 264 265 265 265 265 265 264 263 264 264 265 265 264 264 265 265 264 263 262 262 262 263
238 240 240 241 244 245 247 251 251 251 254 255 256 258 257 255 257 260 261 261 261 260 260 260 261 261 261 261 261 261 261 261 261 261 261 262 263 263 264 265 265 265 265 266 266 266 265 266 267 267 267 267 267 267 267 268 268 267 267 268 268 268 266 264 264 264 264 265 264 264 264 263 263 263 264 265 264 264 264 264 264 263 262 262 263 263
238 240 240 242 245 246 247 251 253 254 256 259 260 261 259 257 257 256 258 262 265 265 263 262 261 261 260 259 260 259 258 259 261 263 263 264 264 263 263 264 266 266 267 267 267 266 266 266 266 266 267 267 267 267 268 268 268 268 268 269 269 269 268 265 264 264 264 264 264 264 263 263 263 262 263 264 264 264 264 263 263 263 262 262 262 262
239 240 241 243 245 247 248 252 255 257 258 260 262 261 259 259 256 253 258 266 270 269 266 262 260 261 260 260 261 260 260 262 264 265 265 265 264 263 263 265 267 267 268 268 268 268 268 267 267 267 266 267 267 267 267 267 268 268 269 270 270 270 269 267 265 264 264 263 263 263 263 262 262 262 262 262 263 264 264 263 262 262 261 261 262 262
239 241 242 243 246 248 250 254 257 259 260 261 262 261 256 255 257 258 264 271 270 266 265 263 261 262 262 262 263 263 265 266 266 265 265 265 264 264 264 265 267 268 268 269 269 269 268 268 268 267 267 267 267 267 267 267 267 267 268 269 270 270 271 269 267 266 265 264 263 263 262 262 262 262 262 262 261 262 262 262 262 262 261 260 261 261
240 241 243 244 247 250 251 252 255 261 263 261 260 259 256 256 260 265 268 268 266 266 266 264 263 262 261 262 264 265 267 268 267 266 266 266 266 265 265 265 266 267 268 268 269 269 268 268 268 268 268 269 269 269 268 267 267 267 267 268 270 271 272 271 270 269 267 266 265 264 263 262 262 262 262 261 261 261 261 261 261 262 261 260 259 260
242 242 246 249 249 248 249 251 257 265 268 262 255 256 256 256 261 265 264 262 264 267 266 264 263 262 261 262 264 265 265 266 266 266 267 266 266 265 264 264 265 266 267 268 268 269 269 268 268 268 269 270 270 270 269 268 267 266 266 268 270 271 272 272 272 271 270 269 267 266 264 263 262 262 261 261 261 261 260 260 260 261 261 260 259 258
246 247 251 253 251 251 254 259 264 269 269 261 254 255 257 256 258 260 260 260 264 267 265 262 261 261 260 260 261 262 262 262 264 265 266 266 265 264 263 264 265 266 267 268 269 270 270 269 269 269 270 270 270 270 269 268 268 267 267 268 270 271 272 273 273 272 271 270 269 267 266 264 263 262 261 261 261 261 260 260 260 260 260 259 259 258
252 252 254 255 254 256 260 263 264 265 263 259 256 255 256 257 256 256 257 260 263 265 263 260 259 260 261 261 261 261 261 261 262 264 266 267 266 263 262 263 265 266 267 268 269 270 270 270 270 270 270 270 271 270 270 270 269 268 268 269 270 271 272 273 273 273 272 271 270 269 267 265 264 263 262 261 261 261 260 260 259 259 259 259 259 258
253 251 252 254 254 255 259 260 260 259 258 257 256 256 256 258 257 255 256 258 260 261 261 259 259 260 262 262 262 261 261 261 262 263 264 264 264 263 263 264 265 266 267 268 269 270 270 270 270 271 271 271 272 272 272 271 271 270 270 271 271 271 272 272 273 274 274 273 272 270 268 266 265 264 263 262 261 260 260 260 259 259 259 258 258 258
252 249 250 252 251 252 256 260 261 262 259 256 256 257 258 258 256 254 254 254 253 255 257 258 259 260 261 261 262 262 263 263 263 263 262 261 262 263 263 264 264 265 267 268 269 269 270 270 271 272 273 273 274 274 273 273 273 273 272 272 272 272 272 272 273 274 274 274 272 271 269 267 265 264 264 263 262 261 260 259 259 259 259 258 257 257
250 247 248 249 249 251 256 258 260 263 260 254 253 255 256 256 254 251 251 251 251 253 257 258 259 260 261 262 263 263 263 263 262 262 262 261 261 263 264 264 264 264 266 267 268 269 270 272 273 274 274 275 276 276 276 275 275 275 275 274 273 273 272 272 272 273 274 274 273 271 269 267 265 264 263 263 263 262 261 260 259 259 258 257 257 256
246 246 246 247 247 250 254 255 256 257 256 253 252 254 255 256 254 251 252 252 253 254 257 259 261 261 261 263 264 264 264 263 262 261 261 262 262 264 266 267 267 266 266 268 269 270 271 273 274 275 276 276 277 277 277 277 277 277 277 276 275 274 273 273 273 272 272 273 274 272 270 268 266 264 263 263 263 263 262 261 260 259 258 258 257 256
244 245 244 245 249 252 254 254 254 253 253 254 255 256 255 257 258 258 258 258 257 256 258 260 262 263 263 263 264 264 265 265 265 263 262 263 264 265 267 268 268 268 269 269 270 272 273 274 275 276 277 278 279 279 279 279 279 279 279 279 278 276 274 274 273 272 271 272 273 273 272 270 268 266 264 263 262 262 262 262 261 260 259 259 258 257